• In Belarus
  • List of Countries
  • For 7 days
  • Water Temperature
  • Satellite Maps
  • Weather Map
  • Weather Widgets
  • user-avatar
    Login

    Hourly Weather Kolomyja

    Today, 20 October, Friday

    Time Temperature Precipitation Wind Pressure Humidity
    00:00 +13°C° 0 mm 1 mps 737 mmHg 72%
    01:00 +13°C° 0 mm 1 mps 737 mmHg 73%
    02:00 +13°C° 0 mm 1 mps 737 mmHg 75%
    03:00 +12°C° 0 mm 1 mps 737 mmHg 76%
    04:00 +12°C° 0 mm 1 mps 737 mmHg 77%
    05:00 +12°C° 0 mm 1 mps 737 mmHg 79%
    06:00 +12°C° 0 mm 1 mps 737 mmHg 77%
    07:00 +12°C° 0 mm 1 mps 737 mmHg 76%
    08:00 +13°C° 0 mm 1 mps 738 mmHg 75%
    09:00 +15°C° 0 mm 1 mps 738 mmHg 67%
    10:00 +18°C° 0 mm 1 mps 738 mmHg 59%
    11:00 +20°C° 0 mm 1 mps 738 mmHg 52%
    12:00 +21°C° 0 mm 1 mps 738 mmHg 50%
    13:00 +22°C° 0 mm 1 mps 738 mmHg 48%
    14:00 +22°C° 0 mm 1 mps 738 mmHg 46%
    15:00 +21°C° 0 mm 1 mps 737 mmHg 52%
    16:00 +19°C° 0 mm 1 mps 737 mmHg 58%
    17:00 +18°C° 0 mm 1 mps 737 mmHg 65%
    18:00 +16°C° 0 mm 1 mps 737 mmHg 68%
    19:00 +15°C° 0 mm 1 mps 738 mmHg 72%
    20:00 +14°C° 0 mm 1 mps 738 mmHg 76%
    21:00 +13°C° 0 mm 1 mps 738 mmHg 77%
    22:00 +13°C° 0 mm 1 mps 738 mmHg 77%
    23:00 +12°C° 0 mm 1 mps 738 mmHg 78%

    Tomorrow, 21 October, Saturday

    Time Temperature Precipitation Wind Pressure Humidity
    00:00 +12°C° 0 mm 1 mps 738 mmHg 78%
    01:00 +12°C° 0 mm 1 mps 738 mmHg 78%
    02:00 +11°C° 0 mm 1 mps 738 mmHg 78%
    03:00 +11°C° 0 mm 1 mps 738 mmHg 78%
    04:00 +11°C° 0 mm 1 mps 738 mmHg 78%
    05:00 +10°C° 0 mm 1 mps 738 mmHg 78%
    06:00 +11°C° 0 mm 1 mps 738 mmHg 76%
    07:00 +11°C° 0 mm 1 mps 738 mmHg 75%
    08:00 +11°C° 0 mm 1 mps 738 mmHg 73%
    09:00 +14°C° 0 mm 1 mps 738 mmHg 65%
    10:00 +16°C° 0 mm 1 mps 738 mmHg 57%
    11:00 +19°C° 0 mm 1 mps 737 mmHg 49%
    12:00 +20°C° 0 mm 1 mps 737 mmHg 47%
    13:00 +21°C° 0 mm 1 mps 737 mmHg 45%
    14:00 +21°C° 0 mm 1 mps 736 mmHg 42%
    15:00 +20°C° 0 mm 1 mps 736 mmHg 48%
    16:00 +19°C° 0 mm 1 mps 736 mmHg 54%
    17:00 +16°C° 0 mm 1 mps 735 mmHg 60%
    18:00 +16°C° 0.3 mm 1 mps 736 mmHg 65%
    19:00 +15°C° 0.3 mm 1 mps 736 mmHg 70%
    20:00 +14°C° 0.3 mm 1 mps 736 mmHg 75%
    21:00 +14°C° 0.8 mm 1 mps 736 mmHg 80%
    22:00 +13°C° 0.8 mm 1 mps 736 mmHg 85%
    23:00 +13°C° 0.8 mm 1 mps 736 mmHg 90%

    Day after tomorrow, 22 October, Sunday

    Time Temperature Precipitation Wind Pressure Humidity
    00:00 +13°C° 0.2 mm 1 mps 736 mmHg 90%
    01:00 +12°C° 0.2 mm 1 mps 736 mmHg 90%
    02:00 +12°C° 0.2 mm 2 mps 736 mmHg 91%
    03:00 +10°C° 0 mm 2 mps 736 mmHg 91%
    04:00 +10°C° 0 mm 2 mps 736 mmHg 92%
    05:00 +9°C° 0 mm 2 mps 736 mmHg 92%
    06:00 +9°C° 0 mm 2 mps 736 mmHg 92%
    07:00 +11°C° 0 mm 1 mps 736 mmHg 91%
    08:00 +11°C° 0 mm 1 mps 737 mmHg 90%
    09:00 +12°C° 0 mm 1 mps 737 mmHg 85%
    10:00 +13°C° 0 mm 1 mps 737 mmHg 80%
    11:00 +15°C° 0 mm 1 mps 737 mmHg 74%
    12:00 +15°C° 0 mm 1 mps 736 mmHg 72%
    13:00 +15°C° 0 mm 1 mps 736 mmHg 70%
    14:00 +16°C° 0 mm 2 mps 736 mmHg 68%
    15:00 +15°C° 0 mm 2 mps 736 mmHg 73%
    16:00 +14°C° 0 mm 2 mps 735 mmHg 78%
    17:00 +13°C° 0 mm 2 mps 735 mmHg 82%
    18:00 +12°C° 0 mm 2 mps 735 mmHg 86%
    19:00 +12°C° 0 mm 2 mps 735 mmHg 89%
    20:00 +10°C° 0 mm 2 mps 735 mmHg 93%
    21:00 +10°C° 0 mm 2 mps 735 mmHg 93%
    22:00 +10°C° 0 mm 2 mps 735 mmHg 93%
    23:00 +10°C° 0 mm 2 mps 735 mmHg 93%

    23 October, Monday

    Time Temperature Precipitation Wind Pressure Humidity
    00:00 +9°C° 0 mm 2 mps 734 mmHg 93%
    01:00 +9°C° 0 mm 2 mps 734 mmHg 93%
    02:00 +9°C° 0 mm 2 mps 734 mmHg 92%
    03:00 +9°C° 0 mm 3 mps 733 mmHg 92%
    04:00 +9°C° 0 mm 3 mps 733 mmHg 92%
    05:00 +9°C° 0 mm 3 mps 733 mmHg 91%
    06:00 +9°C° 0 mm 3 mps 733 mmHg 90%
    07:00 +9°C° 0 mm 3 mps 732 mmHg 89%
    08:00 +10°C° 0 mm 3 mps 732 mmHg 87%
    09:00 +11°C° 0 mm 3 mps 732 mmHg 83%
    10:00 +12°C° 0 mm 4 mps 732 mmHg 80%
    11:00 +13°C° 0 mm 4 mps 732 mmHg 76%
    12:00 +13°C° 0.1 mm 4 mps 731 mmHg 77%
    13:00 +13°C° 0.1 mm 4 mps 731 mmHg 77%
    14:00 +13°C° 0.1 mm 4 mps 730 mmHg 78%
    15:00 +13°C° 0.1 mm 4 mps 730 mmHg 81%
    16:00 +12°C° 0.1 mm 4 mps 730 mmHg 84%
    17:00 +12°C° 0.1 mm 4 mps 730 mmHg 88%
    18:00 +12°C° 0.1 mm 4 mps 731 mmHg 89%
    19:00 +11°C° 0.1 mm 4 mps 731 mmHg 91%
    20:00 +11°C° 0.1 mm 4 mps 731 mmHg 92%
    21:00 +11°C° 0.2 mm 4 mps 731 mmHg 92%
    22:00 +11°C° 0.2 mm 4 mps 731 mmHg 92%
    23:00 +11°C° 0.2 mm 4 mps 731 mmHg 92%

    24 October, Tuesday

    Time Temperature Precipitation Wind Pressure Humidity
    00:00 +11°C° 0.6 mm 4 mps 731 mmHg 93%
    01:00 +11°C° 0.6 mm 4 mps 731 mmHg 93%
    02:00 +10°C° 0.6 mm 4 mps 731 mmHg 93%
    03:00 +10°C° 0.3 mm 4 mps 731 mmHg 93%
    04:00 +10°C° 0.3 mm 4 mps 732 mmHg 93%
    05:00 +10°C° 0.3 mm 4 mps 732 mmHg 93%
    06:00 +10°C° 0.3 mm 4 mps 732 mmHg 93%
    07:00 +8°C° 0.3 mm 4 mps 732 mmHg 93%
    08:00 +8°C° 0.3 mm 4 mps 733 mmHg 92%
    09:00 +9°C° 0.3 mm 3 mps 733 mmHg 91%
    10:00 +10°C° 0.3 mm 3 mps 734 mmHg 90%
    11:00 +10°C° 0.3 mm 3 mps 734 mmHg 89%
    12:00 +10°C° 0.3 mm 3 mps 734 mmHg 88%
    13:00 +10°C° 0.3 mm 3 mps 735 mmHg 88%
    14:00 +10°C° 0.3 mm 3 mps 735 mmHg 87%
    15:00 +10°C° 0.4 mm 2 mps 735 mmHg 88%
    16:00 +10°C° 0.4 mm 2 mps 736 mmHg 89%
    17:00 +10°C° 0.4 mm 2 mps 736 mmHg 90%
    18:00 +10°C° 0.3 mm 2 mps 737 mmHg 90%
    19:00 +10°C° 0.3 mm 2 mps 737 mmHg 90%
    20:00 +11°C° 0.3 mm 1 mps 738 mmHg 91%
    21:00 +10°C° 0.1 mm 1 mps 738 mmHg 91%
    22:00 +10°C° 0.1 mm 1 mps 738 mmHg 90%
    23:00 +10°C° 0.1 mm 1 mps 739 mmHg 90%

    25 October, Wednesday

    Time Temperature Precipitation Wind Pressure Humidity
    00:00 +10°C° 0 mm 1 mps 739 mmHg 90%
    01:00 +10°C° 0 mm 1 mps 739 mmHg 91%
    02:00 +9°C° 0 mm 1 mps 740 mmHg 91%
    03:00 +9°C° 0 mm 1 mps 740 mmHg 91%
    04:00 +9°C° 0 mm 1 mps 740 mmHg 91%
    05:00 +9°C° 0 mm 1 mps 740 mmHg 92%
    06:00 +9°C° 0 mm 1 mps 741 mmHg 91%
    07:00 +9°C° 0 mm 1 mps 741 mmHg 91%
    08:00 +9°C° 0 mm 1 mps 742 mmHg 90%
    09:00 +9°C° 0 mm 1 mps 742 mmHg 88%
    10:00 +10°C° 0 mm 1 mps 742 mmHg 87%
    11:00 +9°C° 0 mm 2 mps 742 mmHg 85%
    12:00 +9°C° 0 mm 2 mps 742 mmHg 85%
    13:00 +10°C° 0 mm 2 mps 742 mmHg 84%
    14:00 +10°C° 0 mm 2 mps 742 mmHg 84%
    15:00 +9°C° 0 mm 2 mps 742 mmHg 85%
    16:00 +9°C° 0 mm 2 mps 742 mmHg 87%
    17:00 +8°C° 0 mm 2 mps 743 mmHg 89%
    18:00 +8°C° 0 mm 2 mps 743 mmHg 89%
    19:00 +8°C° 0 mm 2 mps 743 mmHg 90%
    20:00 +8°C° 0 mm 2 mps 744 mmHg 90%
    21:00 +7°C° 0 mm 2 mps 744 mmHg 91%
    22:00 +7°C° 0 mm 2 mps 744 mmHg 91%
    23:00 +8°C° 0 mm 1 mps 745 mmHg 91%
    Show more